TimeCST,TemperatureF,Dew PointF,Humidity,Sea Level PressureIn,VisibilityMPH,Wind Direction,Wind SpeedMPH,Gust SpeedMPH,PrecipitationIn,Events,Conditions,WindDirDegrees,DateUTC
12:56 AM,42.1,32.0,67,30.35,10.0,Calm,Calm,-,N/A,,Clear,0,2012-11-14 06:56:00
1:56 AM,37.0,33.1,86,30.38,10.0,Calm,Calm,-,N/A,,Clear,0,2012-11-14 07:56:00
2:56 AM,35.1,33.1,92,30.37,10.0,Calm,Calm,-,N/A,,Clear,0,2012-11-14 08:56:00
3:56 AM,34.0,32.0,92,30.36,10.0,Calm,Calm,-,N/A,,Clear,0,2012-11-14 09:56:00
4:56 AM,39.0,35.1,86,30.35,10.0,Calm,Calm,-,N/A,,Overcast,0,2012-11-14 10:56:00
5:56 AM,39.0,34.0,82,30.37,10.0,North,4.6,-,N/A,,Overcast,350,2012-11-14 11:56:00
6:56 AM,37.0,33.1,86,30.38,10.0,Calm,Calm,-,N/A,,Partly Cloudy,0,2012-11-14 12:56:00
7:56 AM,42.1,34.0,73,30.40,10.0,North,3.5,-,N/A,,Mostly Cloudy,360,2012-11-14 13:56:00
8:56 AM,46.9,32.0,56,30.39,10.0,Variable,3.5,-,N/A,,Clear,0,2012-11-14 14:56:00
9:56 AM,52.0,30.0,43,30.39,10.0,ENE,3.5,-,N/A,,Clear,70,2012-11-14 15:56:00
10:56 AM,55.0,30.9,40,30.38,10.0,Variable,4.6,-,N/A,,Clear,0,2012-11-14 16:56:00
11:56 AM,57.9,28.9,33,30.35,10.0,Variable,5.8,-,N/A,,Clear,0,2012-11-14 17:56:00
12:56 PM,59.0,28.0,31,30.32,10.0,Variable,4.6,-,N/A,,Clear,0,2012-11-14 18:56:00
1:56 PM,61.0,28.9,30,30.30,10.0,Variable,5.8,-,N/A,,Clear,0,2012-11-14 19:56:00
2:56 PM,60.1,27.0,28,30.29,10.0,NNE,10.4,-,N/A,,Clear,20,2012-11-14 20:56:00
3:56 PM,59.0,28.9,32,30.28,10.0,North,9.2,-,N/A,,Clear,350,2012-11-14 21:56:00
4:56 PM,55.0,30.9,40,30.29,10.0,Calm,Calm,-,N/A,,Clear,0,2012-11-14 22:56:00
5:56 PM,46.0,37.0,71,30.30,5.0,Calm,Calm,-,N/A,,Haze,0,2012-11-14 23:56:00
6:56 PM,43.0,36.0,76,30.30,10.0,Calm,Calm,-,N/A,,Clear,0,2012-11-15 00:56:00
7:56 PM,39.9,36.0,86,30.31,9.0,Calm,Calm,-,N/A,,Clear,0,2012-11-15 01:56:00
8:56 PM,37.9,35.1,89,30.32,10.0,Calm,Calm,-,N/A,,Clear,0,2012-11-15 02:56:00
9:56 PM,36.0,34.0,93,30.32,9.0,Calm,Calm,-,N/A,,Clear,0,2012-11-15 03:56:00
10:56 PM,35.1,33.1,92,30.31,10.0,Calm,Calm,-,N/A,,Clear,0,2012-11-15 04:56:00
11:56 PM,34.0,32.0,92,30.31,10.0,Calm,Calm,-,N/A,,Clear,0,2012-11-15 05:56:00